GW6039 Weather Reports


time (UTC)temp
F
wind
direction
speed
knots
gust
knots
rain 1hr
in
rain 24hr
in
rain mn
in
humidity
%
barometer
mb
20260502163035 86 55 7.8 13.9 0.00 0.00 0.00 24 1013.2
20260502161534 85 20 3.5 8.7 0.00 0.00 0.00 26 1013.2
20260502151504 77 288 0.9 1.7 0.00 0.00 0.00 23 1013.1
20260502123020 68 313 0.9 2.6 0.00 0.00 0.00 28 1011.1
20260502121518 68 195 0.9 1.7 0.00 0.00 0.00 27 1011.1
20260502114513 68 269 0.9 3.5 0.00 0.00 0.00 26 1010.8
20260502113007 70 291 0.0 3.5 0.00 0.00 0.00 25 1010.8
20260502110009 72 197 0.9 7.0 0.00 0.00 0.00 27 1010.6
20260502104523 73 359 2.6 4.3 0.00 0.00 0.00 26 1010.5
20260502103023 73 11 2.6 5.2 0.00 0.00 0.00 26 1010.5
20260502091512 70 340 3.5 6.1 0.00 0.00 0.00 26 1010.0
20260502071512 74 179 0.0 1.7 0.00 0.00 0.00 22 1010.1
20260502064533 75 174 0.9 1.7 0.00 0.00 0.00 21 1009.9
20260502063029 76 200 0.9 2.6 0.00 0.00 0.00 21 1010.0
20260502060021 76 171 0.9 2.6 0.00 0.00 0.00 20 1009.8
20260502054522 78 191 0.0 2.6 0.00 0.00 0.00 19 1009.8
20260502053020 78 177 1.7 2.6 0.00 0.00 0.00 19 1009.7
20260502051521 77 172 1.7 2.6 0.00 0.00 0.00 19 1009.7
20260502050028 78 196 0.9 1.7 0.00 0.00 0.00 19 1009.7
20260502044512 79 175 1.7 3.5 0.00 0.00 0.00 18 1009.5
20260502043026 80 167 1.7 3.5 0.00 0.00 0.00 18 1009.3
20260502041528 80 176 0.9 1.7 0.00 0.00 0.00 18 1009.2
20260502040022 79 172 0.0 1.7 0.00 0.00 0.00 18 1008.9
20260502034523 81 172 0.0 1.7 0.00 0.00 0.00 18 1008.8
20260502033022 82 198 0.9 1.7 0.00 0.00 0.00 18 1008.7
20260502030024 84 214 0.0 1.7 0.00 0.00 0.00 17 1008.2
20260502024513 85 217 0.0 1.7 0.00 0.00 0.00 16 1008.0
20260502023028 86 221 0.9 1.7 0.00 0.00 0.00 14 1008.0
20260502021525 87 266 0.9 1.7 0.00 0.00 0.00 14 1007.8
20260502020024 88 260 0.9 3.5 0.00 0.00 0.00 13 1007.6
20260502014529 88 279 1.7 4.3 0.00 0.00 0.00 14 1007.6
20260502013023 89 246 0.9 4.3 0.00 0.00 0.00 16 1007.6
20260502011522 90 269 2.6 4.3 0.00 0.00 0.00 15 1007.6
20260502004541 90 215 0.0 5.2 0.00 0.00 0.00 16 1007.7
20260502003026 90 208 2.6 5.2 0.00 0.00 0.00 16 1007.7
20260502001532 90 323 2.6 6.1 0.00 0.00 0.00 16 1007.8
20260502000029 90 350 3.5 9.6 0.00 0.00 0.00 16 1007.9
20260501234524 92 360 1.7 5.2 0.00 0.00 0.00 16 1008.0
20260501233023 90 300 1.7 6.1 0.00 0.00 0.00 16 1008.2
20260501231525 91 285 3.5 9.6 0.00 0.00 0.00 15 1008.2
20260501230024 91 285 3.5 8.7 0.00 0.00 0.00 17 1008.3
20260501223022 90 329 2.6 6.1 0.00 0.00 0.00 20 1008.6
20260501221528 90 268 4.3 7.0 0.00 0.00 0.00 21 1008.8
20260501220032 90 274 4.3 7.8 0.00 0.00 0.00 22 1009.0
20260501214518 90 273 2.6 5.2 0.00 0.00 0.00 22 1009.2
20260501213028 89 129 3.5 7.0 0.00 0.00 0.00 21 1009.5
20260501211509 90 305 3.5 8.7 0.00 0.00 0.00 20 1009.9
20260501210017 87 266 1.7 7.0 0.00 0.00 0.00 22 1010.0
20260501204526 89 282 3.5 7.8 0.00 0.00 0.00 21 1010.1
20260501203019 87 134 1.7 13.9 0.00 0.00 0.00 22 1010.1
20260501201523 87 257 2.6 6.1 0.00 0.00 0.00 23 1010.4
20260501200020 85 1 1.7 7.0 0.00 0.00 0.00 25 1010.4
20260501193015 87 84 2.6 3.5 0.00 0.00 0.00 24 1010.9
20260501191510 86 146 2.6 6.1 0.00 0.00 0.00 24 1011.1
20260501190010 86 122 3.5 6.1 0.00 0.00 0.00 26 1011.4
20260501184521 83 228 0.9 5.2 0.00 0.00 0.00 28 1011.5
20260501183022 83 240 1.7 6.1 0.00 0.00 0.00 27 1011.7
20260501181520 83 257 1.7 3.5 0.00 0.00 0.00 27 1011.8
20260501180030 80 162 0.9 7.0 0.00 0.00 0.00 29 1012.0
20260501174525 81 218 1.7 5.2 0.00 0.00 0.00 30 1012.0
20260501173021 80 345 1.7 6.1 0.00 0.00 0.00 31 1012.2